• In Germany
  • List of Countries
  • For 7 days
  • Water Temperature
  • Satellite Maps
  • Weather Map
  • Weather Widgets
  • user-avatar
    Login

    Hourly Weather Sherpur

    Today, 22 September, Friday

    Time Temperature Precipitation Wind Pressure Humidity
    00:00 +18°C° 0 mm 1 mps 609 mmHg 31%
    01:00 +18°C° 0 mm 1 mps 608 mmHg 33%
    02:00 +16°C° 0 mm 1 mps 608 mmHg 35%
    03:00 +16°C° 0 mm 1 mps 608 mmHg 36%
    04:00 +15°C° 0 mm 1 mps 608 mmHg 37%
    05:00 +14°C° 0 mm 1 mps 608 mmHg 40%
    06:00 +16°C° 0 mm 1 mps 608 mmHg 36%
    07:00 +18°C° 0 mm 1 mps 609 mmHg 33%
    08:00 +19°C° 0 mm 1 mps 610 mmHg 29%
    09:00 +21°C° 0 mm 1 mps 610 mmHg 25%
    10:00 +22°C° 0 mm 1 mps 610 mmHg 22%
    11:00 +23°C° 0 mm 1 mps 611 mmHg 18%
    12:00 +24°C° 0 mm 2 mps 611 mmHg 16%
    13:00 +25°C° 0 mm 2 mps 611 mmHg 15%
    14:00 +26°C° 0 mm 2 mps 611 mmHg 13%
    15:00 +25°C° 0 mm 2 mps 610 mmHg 13%
    16:00 +25°C° 0 mm 2 mps 610 mmHg 13%
    17:00 +25°C° 0 mm 2 mps 610 mmHg 13%
    18:00 +24°C° 0 mm 2 mps 610 mmHg 16%
    19:00 +21°C° 0 mm 2 mps 610 mmHg 18%
    20:00 +20°C° 0 mm 2 mps 609 mmHg 21%
    21:00 +19°C° 0 mm 2 mps 609 mmHg 23%
    22:00 +18°C° 0 mm 2 mps 609 mmHg 26%
    23:00 +19°C° 0 mm 1 mps 609 mmHg 28%

    Tomorrow, 23 September, Saturday

    Time Temperature Precipitation Wind Pressure Humidity
    00:00 +18°C° 0 mm 1 mps 609 mmHg 29%
    01:00 +18°C° 0 mm 1 mps 609 mmHg 30%
    02:00 +16°C° 0 mm 1 mps 609 mmHg 31%
    03:00 +16°C° 0 mm 1 mps 608 mmHg 32%
    04:00 +15°C° 0 mm 1 mps 608 mmHg 32%
    05:00 +15°C° 0 mm 1 mps 608 mmHg 33%
    06:00 +16°C° 0 mm 1 mps 609 mmHg 30%
    07:00 +18°C° 0 mm 1 mps 610 mmHg 27%
    08:00 +20°C° 0 mm 1 mps 611 mmHg 24%
    09:00 +21°C° 0 mm 1 mps 611 mmHg 21%
    10:00 +22°C° 0 mm 1 mps 612 mmHg 18%
    11:00 +24°C° 0 mm 1 mps 612 mmHg 16%
    12:00 +24°C° 0 mm 1 mps 612 mmHg 15%
    13:00 +25°C° 0 mm 2 mps 612 mmHg 13%
    14:00 +26°C° 0 mm 2 mps 612 mmHg 12%
    15:00 +26°C° 0 mm 2 mps 612 mmHg 12%
    16:00 +26°C° 0 mm 2 mps 612 mmHg 12%
    17:00 +26°C° 0 mm 2 mps 612 mmHg 12%
    18:00 +24°C° 0 mm 2 mps 611 mmHg 15%
    19:00 +23°C° 0 mm 2 mps 611 mmHg 17%
    20:00 +20°C° 0 mm 2 mps 611 mmHg 20%
    21:00 +19°C° 0 mm 2 mps 611 mmHg 22%
    22:00 +19°C° 0 mm 2 mps 611 mmHg 23%
    23:00 +19°C° 0 mm 1 mps 610 mmHg 25%

    Day after tomorrow, 24 September, Sunday

    Time Temperature Precipitation Wind Pressure Humidity
    00:00 +18°C° 0 mm 1 mps 610 mmHg 26%
    01:00 +18°C° 0 mm 1 mps 610 mmHg 27%
    02:00 +16°C° 0 mm 1 mps 609 mmHg 28%
    03:00 +16°C° 0 mm 1 mps 609 mmHg 29%
    04:00 +15°C° 0 mm 2 mps 609 mmHg 29%
    05:00 +15°C° 0 mm 2 mps 609 mmHg 30%
    06:00 +16°C° 0 mm 2 mps 610 mmHg 27%
    07:00 +18°C° 0 mm 2 mps 611 mmHg 24%
    08:00 +19°C° 0 mm 2 mps 611 mmHg 22%
    09:00 +20°C° 0 mm 2 mps 612 mmHg 19%
    10:00 +23°C° 0 mm 2 mps 612 mmHg 17%
    11:00 +24°C° 0 mm 2 mps 613 mmHg 15%
    12:00 +25°C° 0 mm 2 mps 613 mmHg 14%
    13:00 +26°C° 0 mm 2 mps 612 mmHg 13%
    14:00 +26°C° 0 mm 2 mps 612 mmHg 12%
    15:00 +26°C° 0 mm 3 mps 612 mmHg 12%
    16:00 +26°C° 0 mm 3 mps 612 mmHg 12%
    17:00 +26°C° 0 mm 3 mps 612 mmHg 12%
    18:00 +24°C° 0 mm 3 mps 612 mmHg 15%
    19:00 +22°C° 0 mm 3 mps 612 mmHg 17%
    20:00 +20°C° 0 mm 2 mps 611 mmHg 19%
    21:00 +19°C° 0 mm 2 mps 611 mmHg 20%
    22:00 +18°C° 0 mm 2 mps 611 mmHg 21%
    23:00 +18°C° 0 mm 2 mps 611 mmHg 22%

    25 September, Monday

    Time Temperature Precipitation Wind Pressure Humidity
    00:00 +17°C° 0 mm 2 mps 610 mmHg 23%
    01:00 +16°C° 0 mm 2 mps 610 mmHg 24%
    02:00 +16°C° 0 mm 2 mps 609 mmHg 25%
    03:00 +15°C° 0 mm 2 mps 609 mmHg 25%
    04:00 +15°C° 0 mm 2 mps 609 mmHg 26%
    05:00 +15°C° 0 mm 2 mps 609 mmHg 26%
    06:00 +16°C° 0 mm 2 mps 610 mmHg 25%
    07:00 +17°C° 0 mm 3 mps 611 mmHg 23%
    08:00 +18°C° 0 mm 3 mps 611 mmHg 21%
    09:00 +19°C° 0 mm 3 mps 612 mmHg 18%
    10:00 +21°C° 0 mm 2 mps 612 mmHg 16%
    11:00 +23°C° 0 mm 2 mps 612 mmHg 13%
    12:00 +24°C° 0 mm 3 mps 612 mmHg 12%
    13:00 +25°C° 0 mm 3 mps 612 mmHg 11%
    14:00 +26°C° 0 mm 3 mps 612 mmHg 10%
    15:00 +25°C° 0 mm 3 mps 612 mmHg 10%
    16:00 +25°C° 0 mm 4 mps 611 mmHg 10%
    17:00 +25°C° 0 mm 4 mps 611 mmHg 10%
    18:00 +22°C° 0 mm 3 mps 611 mmHg 13%
    19:00 +20°C° 0 mm 3 mps 611 mmHg 15%
    20:00 +19°C° 0 mm 3 mps 611 mmHg 17%
    21:00 +18°C° 0 mm 2 mps 610 mmHg 18%
    22:00 +17°C° 0 mm 2 mps 610 mmHg 19%
    23:00 +16°C° 0 mm 2 mps 610 mmHg 21%

    26 September, Tuesday

    Time Temperature Precipitation Wind Pressure Humidity
    00:00 +16°C° 0 mm 2 mps 609 mmHg 21%
    01:00 +15°C° 0 mm 2 mps 609 mmHg 21%
    02:00 +15°C° 0 mm 2 mps 609 mmHg 22%
    03:00 +15°C° 0 mm 2 mps 609 mmHg 22%
    04:00 +14°C° 0 mm 2 mps 608 mmHg 22%
    05:00 +14°C° 0 mm 2 mps 608 mmHg 22%
    06:00 +15°C° 0 mm 2 mps 609 mmHg 20%
    07:00 +16°C° 0 mm 2 mps 610 mmHg 19%
    08:00 +18°C° 0 mm 2 mps 611 mmHg 17%
    09:00 +19°C° 0 mm 2 mps 611 mmHg 15%
    10:00 +22°C° 0 mm 1 mps 612 mmHg 13%
    11:00 +23°C° 0 mm 1 mps 612 mmHg 10%
    12:00 +24°C° 0 mm 1 mps 612 mmHg 10%
    13:00 +25°C° 0 mm 2 mps 612 mmHg 9%
    14:00 +26°C° 0 mm 2 mps 611 mmHg 9%
    15:00 +26°C° 0 mm 2 mps 611 mmHg 9%
    16:00 +26°C° 0 mm 2 mps 611 mmHg 9%
    17:00 +26°C° 0 mm 2 mps 611 mmHg 9%
    18:00 +24°C° 0 mm 2 mps 611 mmHg 10%
    19:00 +21°C° 0 mm 2 mps 611 mmHg 12%
    20:00 +19°C° 0 mm 2 mps 611 mmHg 14%
    21:00 +18°C° 0 mm 2 mps 611 mmHg 15%
    22:00 +19°C° 0 mm 1 mps 610 mmHg 17%
    23:00 +18°C° 0 mm 1 mps 610 mmHg 18%

    27 September, Wednesday

    Time Temperature Precipitation Wind Pressure Humidity
    00:00 +18°C° 0 mm 1 mps 610 mmHg 19%
    01:00 +16°C° 0 mm 1 mps 610 mmHg 20%
    02:00 +15°C° 0 mm 2 mps 610 mmHg 21%
    03:00 +15°C° 0 mm 2 mps 610 mmHg 22%
    04:00 +15°C° 0 mm 2 mps 610 mmHg 22%
    05:00 +14°C° 0 mm 2 mps 610 mmHg 23%
    06:00 +16°C° 0 mm 2 mps 610 mmHg 21%
    07:00 +17°C° 0 mm 2 mps 611 mmHg 20%
    08:00 +18°C° 0 mm 2 mps 612 mmHg 18%
    09:00 +20°C° 0 mm 2 mps 613 mmHg 16%
    10:00 +21°C° 0 mm 2 mps 613 mmHg 15%
    11:00 +23°C° 0 mm 2 mps 614 mmHg 13%
    12:00 +24°C° 0 mm 3 mps 614 mmHg 12%
    13:00 +25°C° 0 mm 3 mps 613 mmHg 11%
    14:00 +26°C° 0 mm 3 mps 613 mmHg 10%
    15:00 +26°C° 0 mm 3 mps 613 mmHg 11%
    16:00 +25°C° 0 mm 3 mps 613 mmHg 11%
    17:00 +25°C° 0 mm 4 mps 613 mmHg 11%
    18:00 +22°C° 0 mm 3 mps 613 mmHg 13%
    19:00 +21°C° 0 mm 3 mps 612 mmHg 15%
    20:00 +19°C° 0 mm 2 mps 612 mmHg 16%
    21:00 +18°C° 0 mm 2 mps 612 mmHg 17%
    22:00 +17°C° 0 mm 2 mps 611 mmHg 18%
    23:00 +16°C° 0 mm 2 mps 611 mmHg 19%
    Show more